This is the latest recevied weather packets stored in our database for station/object KD9IXX-13. If no packets are shown the sender has not sent any weather packets the latest 10 day(s).
| Time | Temp. | Humidity | Pressure | Rain* | Wind** | Luminosity | Snow |
|---|---|---|---|---|---|---|---|
| 1777476903 | 12.78° C | 72% | 1015 hPa | 0 mm | - | 166 W/m² | - |
| 1777476603 | 13.33° C | 70% | 1015 hPa | 0 mm | - | 170 W/m² | - |
| 1777476302 | 13.33° C | 70% | 1014.9 hPa | 0 mm | - | 223 W/m² | - |
| 1777476002 | 13.33° C | 70% | 1014.8 hPa | 0 mm | - | 266 W/m² | - |
| 1777475702 | 13.33° C | 70% | 1014.7 hPa | 0 mm | - | 333 W/m² | - |
| 1777475402 | 12.78° C | 73% | 1014.8 hPa | 0 mm | - | 819 W/m² | - |
| 1777475102 | 13.33° C | 75% | 1014.6 hPa | 0 mm | - | 187 W/m² | - |
| 1777474802 | 13.33° C | 75% | 1014.8 hPa | 0 mm | - | 209 W/m² | - |
| 1777474502 | 13.33° C | 74% | 1014.6 hPa | 0 mm | - | 182 W/m² | - |
| 1777474202 | 14.44° C | 74% | 1014.6 hPa | 0 mm | - | 787 W/m² | - |
| 1777473902 | 13.89° C | 74% | 1014.6 hPa | 0 mm | - | 721 W/m² | - |
| 1777473603 | 13.89° C | 72% | 1014.7 hPa | 0 mm | - | 237 W/m² | - |
| 1777473302 | 13.89° C | 73% | 1014.5 hPa | 0 mm | - | 640 W/m² | - |
| 1777473002 | 13.89° C | 72% | 1014.5 hPa | 0 mm | - | 614 W/m² | - |
| 1777472702 | 13.89° C | 72% | 1014.4 hPa | 0 mm | - | 597 W/m² | - |
| 1777472403 | 13.89° C | 73% | 1014.2 hPa | 0 mm | - | 606 W/m² | - |
| 1777472103 | 13.33° C | 71% | 1014.3 hPa | 0 mm | - | 636 W/m² | - |
| 1777471803 | 13.89° C | 73% | 1014.3 hPa | 0 mm | - | 630 W/m² | - |
| 1777471502 | 13.89° C | 73% | 1014.3 hPa | 0 mm | - | 581 W/m² | - |
| 1777471203 | 13.89° C | 73% | 1014.3 hPa | 0 mm | - | 563 W/m² | - |
| 1777470902 | 13.33° C | 74% | 1014.3 hPa | 0 mm | - | 524 W/m² | - |
| 1777470601 | 13.33° C | 74% | 1014.4 hPa | 0 mm | - | 187 W/m² | - |
| 1777470302 | 13.33° C | 74% | 1014.5 hPa | 0 mm | - | 412 W/m² | - |
| 1777470002 | 13.33° C | 75% | 1014.5 hPa | 0 mm | - | 393 W/m² | - |
| 1777469702 | 13.33° C | 74% | 1014.4 hPa | 0 mm | - | 364 W/m² | - |
* Rain latest hour (hover to see other rain measurements)
** Current wind speed in m/s (hover to see current wind gust speed)